Time,TemperatureF,DewpointF,PressureIn,WindDirection,WindDirectionDegrees,WindSpeedMPH,WindSpeedGustMPH,Humidity,HourlyPrecipIn,Conditions,Clouds,dailyrainin,SoftwareType,DateUTC
2013-11-12 00:03:00,55.6,49.0,30.39,ENE,67,3.0,3.0,78,0.00,,,0.00,Rainwise IP-100,2013-11-12 08:03:00,
2013-11-12 00:08:00,55.4,48.0,30.40,NE,45,2.3,4.0,78,0.00,,,0.00,Rainwise IP-100,2013-11-12 08:08:00,
2013-11-12 00:13:00,55.4,48.0,30.40,NE,45,0.0,2.0,78,0.00,,,0.00,Rainwise IP-100,2013-11-12 08:13:00,
2013-11-12 00:18:00,55.3,48.0,30.40,NE,45,0.0,0.0,78,0.00,,,0.00,Rainwise IP-100,2013-11-12 08:18:00,
2013-11-12 00:23:00,55.2,48.0,30.39,NE,45,0.0,2.0,77,0.00,,,0.00,Rainwise IP-100,2013-11-12 08:23:00,
2013-11-12 00:28:00,55.3,48.0,30.40,NNE,22,0.0,3.0,77,0.00,,,0.00,Rainwise IP-100,2013-11-12 08:28:00,
2013-11-12 00:31:00,55.4,47.0,30.40,NNE,22,1.2,3.0,76,0.00,,,0.00,Rainwise IP-100,2013-11-12 08:31:00,
2013-11-12 00:36:00,55.7,48.0,30.40,NE,45,0.0,2.0,76,0.00,,,0.00,Rainwise IP-100,2013-11-12 08:36:00,
2013-11-12 00:41:00,55.7,48.0,30.40,NE,45,0.0,0.0,76,0.00,,,0.00,Rainwise IP-100,2013-11-12 08:41:00,
2013-11-12 00:46:00,55.6,48.0,30.41,WSW,247,1.6,3.0,76,0.00,,,0.00,Rainwise IP-100,2013-11-12 08:46:00,
2013-11-12 00:51:00,55.6,49.0,30.41,WSW,247,1.4,2.0,77,0.00,,,0.00,Rainwise IP-100,2013-11-12 08:51:00,
2013-11-12 00:56:00,55.5,49.0,30.42,West,270,3.3,4.0,78,0.00,,,0.00,Rainwise IP-100,2013-11-12 08:56:00,
2013-11-12 01:01:00,55.6,49.0,30.42,WNW,292,1.9,4.0,78,0.00,,,0.00,Rainwise IP-100,2013-11-12 09:01:00,
2013-11-12 01:06:00,55.9,49.0,30.42,SW,225,3.0,4.0,77,0.00,,,0.00,Rainwise IP-100,2013-11-12 09:06:00,
2013-11-12 01:11:00,56.6,49.0,30.42,West,270,2.1,6.0,75,0.00,,,0.00,Rainwise IP-100,2013-11-12 09:11:00,
2013-11-12 01:16:00,57.3,48.0,30.42,West,270,1.6,4.0,72,0.00,,,0.00,Rainwise IP-100,2013-11-12 09:16:00,
2013-11-12 01:21:00,57.6,48.0,30.42,SE,135,0.0,2.0,71,0.00,,,0.00,Rainwise IP-100,2013-11-12 09:21:00,
2013-11-12 01:26:00,57.4,48.0,30.43,SE,135,0.0,2.0,71,0.00,,,0.00,Rainwise IP-100,2013-11-12 09:26:00,
2013-11-12 01:31:00,57.1,47.0,30.43,SW,225,3.5,4.0,71,0.00,,,0.00,Rainwise IP-100,2013-11-12 09:31:00,
2013-11-12 01:36:00,56.9,47.0,30.43,West,270,1.2,4.0,71,0.00,,,0.00,Rainwise IP-100,2013-11-12 09:36:00,
2013-11-12 01:41:00,56.7,47.0,30.43,WSW,247,1.9,6.0,71,0.00,,,0.00,Rainwise IP-100,2013-11-12 09:41:00,
2013-11-12 01:46:00,56.3,47.0,30.44,WNW,292,0.0,8.0,73,0.00,,,0.00,Rainwise IP-100,2013-11-12 09:46:00,
2013-11-12 01:51:00,55.9,48.0,30.44,WNW,292,2.6,9.0,75,0.00,,,0.00,Rainwise IP-100,2013-11-12 09:51:00,
2013-11-12 01:56:00,55.7,49.0,30.43,WSW,247,0.0,9.0,77,0.00,,,0.00,Rainwise IP-100,2013-11-12 09:56:00,
2013-11-12 02:01:00,55.7,49.0,30.43,WNW,292,1.4,5.0,77,0.00,,,0.00,Rainwise IP-100,2013-11-12 10:01:00,
2013-11-12 02:06:00,55.8,48.0,30.43,NNW,337,0.0,7.0,76,0.00,,,0.00,Rainwise IP-100,2013-11-12 10:06:00,
2013-11-12 02:11:00,55.8,48.0,30.44,SSE,157,0.0,1.0,76,0.00,,,0.00,Rainwise IP-100,2013-11-12 10:11:00,
2013-11-12 02:16:00,55.7,48.0,30.44,ESE,112,1.4,1.4,76,0.00,,,0.00,Rainwise IP-100,2013-11-12 10:16:00,
2013-11-12 02:21:00,55.5,49.0,30.43,NE,45,3.5,3.5,77,0.00,,,0.00,Rainwise IP-100,2013-11-12 10:21:00,
2013-11-12 02:25:00,55.4,48.0,30.41,NE,45,2.1,4.0,77,0.00,,,0.00,Rainwise IP-100,2013-11-12 10:25:00,
2013-11-12 02:30:00,55.4,48.0,30.42,ESE,112,0.0,3.0,77,0.00,,,0.00,Rainwise IP-100,2013-11-12 10:30:00,
2013-11-12 02:35:00,55.4,48.0,30.43,NW,315,0.0,2.0,77,0.00,,,0.00,Rainwise IP-100,2013-11-12 10:35:00,
2013-11-12 02:40:00,55.4,48.0,30.43,SSW,202,0.0,2.0,77,0.00,,,0.00,Rainwise IP-100,2013-11-12 10:40:00,
2013-11-12 02:45:00,55.4,48.0,30.43,WSW,247,0.0,2.0,77,0.00,,,0.00,Rainwise IP-100,2013-11-12 10:45:00,
2013-11-12 02:50:00,55.3,48.0,30.44,SSW,202,0.0,1.0,78,0.00,,,0.00,Rainwise IP-100,2013-11-12 10:50:00,
2013-11-12 02:55:00,55.2,49.0,30.43,SSW,202,0.0,0.0,79,0.00,,,0.00,Rainwise IP-100,2013-11-12 10:55:00,
2013-11-12 03:00:00,55.1,49.0,30.42,SSW,202,0.0,0.0,79,0.00,,,0.00,Rainwise IP-100,2013-11-12 11:00:00,
2013-11-12 03:05:00,54.9,49.0,30.43,SSW,202,0.0,0.0,80,0.00,,,0.00,Rainwise IP-100,2013-11-12 11:05:00,
2013-11-12 03:10:00,54.8,48.0,30.43,SSW,202,0.0,1.0,80,0.00,,,0.00,Rainwise IP-100,2013-11-12 11:10:00,
2013-11-12 03:15:00,54.7,49.0,30.44,WSW,247,0.0,2.0,81,0.00,,,0.00,Rainwise IP-100,2013-11-12 11:15:00,
2013-11-12 03:20:00,54.7,49.0,30.44,WSW,247,1.2,2.0,81,0.00,,,0.00,Rainwise IP-100,2013-11-12 11:20:00,
2013-11-12 03:25:00,54.6,49.0,30.44,SSE,157,1.6,3.0,82,0.00,,,0.00,Rainwise IP-100,2013-11-12 11:25:00,
2013-11-12 03:30:00,54.5,50.0,30.45,SW,225,5.6,7.0,83,0.00,,,0.00,Rainwise IP-100,2013-11-12 11:30:00,
2013-11-12 03:35:00,54.4,50.0,30.45,West,270,1.2,6.0,85,0.00,,,0.00,Rainwise IP-100,2013-11-12 11:35:00,
2013-11-12 03:40:00,54.3,50.0,30.45,SSW,202,1.6,4.0,85,0.00,,,0.00,Rainwise IP-100,2013-11-12 11:40:00,
2013-11-12 03:45:00,54.2,50.0,30.45,WNW,292,3.0,4.0,86,0.00,,,0.00,Rainwise IP-100,2013-11-12 11:45:00,
2013-11-12 03:50:00,54.2,50.0,30.44,SSW,202,0.0,4.0,86,0.00,,,0.00,Rainwise IP-100,2013-11-12 11:50:00,
2013-11-12 03:55:00,54.4,50.0,30.45,SSW,202,2.6,4.0,85,0.00,,,0.00,Rainwise IP-100,2013-11-12 11:55:00,
2013-11-12 04:00:00,54.4,50.0,30.45,SW,225,1.4,4.0,85,0.00,,,0.00,Rainwise IP-100,2013-11-12 12:00:00,
2013-11-12 04:05:00,54.5,50.0,30.45,SW,225,0.0,4.0,85,0.00,,,0.00,Rainwise IP-100,2013-11-12 12:05:00,
2013-11-12 04:10:00,54.5,50.0,30.45,West,270,1.6,2.0,85,0.00,,,0.00,Rainwise IP-100,2013-11-12 12:10:00,
2013-11-12 04:15:00,54.5,50.0,30.46,SW,225,0.0,4.0,85,0.00,,,0.00,Rainwise IP-100,2013-11-12 12:15:00,
2013-11-12 04:20:00,54.5,50.0,30.45,North,360,0.0,2.0,85,0.00,,,0.00,Rainwise IP-100,2013-11-12 12:20:00,
2013-11-12 04:25:00,54.5,50.0,30.46,ENE,67,1.6,1.6,85,0.00,,,0.00,Rainwise IP-100,2013-11-12 12:25:00,
2013-11-12 04:30:00,54.4,50.0,30.47,SSE,157,1.4,2.0,85,0.00,,,0.00,Rainwise IP-100,2013-11-12 12:30:00,
2013-11-12 04:35:00,54.2,50.0,30.47,SE,135,0.0,2.0,85,0.00,,,0.00,Rainwise IP-100,2013-11-12 12:35:00,
2013-11-12 04:40:00,54.2,50.0,30.46,NNW,337,1.4,1.4,85,0.00,,,0.00,Rainwise IP-100,2013-11-12 12:40:00,
2013-11-12 04:45:00,54.1,50.0,30.47,NNW,337,0.0,1.0,86,0.00,,,0.00,Rainwise IP-100,2013-11-12 12:45:00,
2013-11-12 04:50:00,54.1,50.0,30.47,WSW,247,1.2,3.0,86,0.00,,,0.00,Rainwise IP-100,2013-11-12 12:50:00,
2013-11-12 04:55:00,54.3,50.0,30.47,West,270,0.0,2.0,86,0.00,,,0.00,Rainwise IP-100,2013-11-12 12:55:00,
2013-11-12 05:00:00,54.2,50.0,30.47,NNE,22,1.9,3.0,85,0.00,,,0.00,Rainwise IP-100,2013-11-12 13:00:00,
2013-11-12 05:05:00,54.2,50.0,30.47,NNE,22,0.0,2.0,85,0.00,,,0.00,Rainwise IP-100,2013-11-12 13:05:00,
2013-11-12 05:10:00,54.4,50.0,30.47,WNW,292,2.3,3.0,84,0.00,,,0.00,Rainwise IP-100,2013-11-12 13:10:00,
2013-11-12 05:15:00,54.7,50.0,30.47,WNW,292,0.0,4.0,83,0.00,,,0.00,Rainwise IP-100,2013-11-12 13:15:00,
2013-11-12 05:20:00,55.0,50.0,30.47,NE,45,1.6,2.0,82,0.00,,,0.00,Rainwise IP-100,2013-11-12 13:20:00,
2013-11-12 05:25:00,54.9,50.0,30.47,NE,45,0.0,2.0,82,0.00,,,0.00,Rainwise IP-100,2013-11-12 13:25:00,
2013-11-12 05:30:00,54.8,49.0,30.47,NE,45,2.6,3.0,82,0.00,,,0.00,Rainwise IP-100,2013-11-12 13:30:00,
2013-11-12 05:35:00,54.9,50.0,30.47,NE,45,0.0,2.0,81,0.00,,,0.00,Rainwise IP-100,2013-11-12 13:35:00,
2013-11-12 05:40:00,54.9,50.0,30.47,NE,45,1.6,2.0,81,0.00,,,0.00,Rainwise IP-100,2013-11-12 13:40:00,
2013-11-12 05:45:00,55.0,50.0,30.47,NE,45,1.2,2.0,81,0.00,,,0.00,Rainwise IP-100,2013-11-12 13:45:00,
2013-11-12 05:50:00,55.1,50.0,30.47,NNE,22,1.4,3.0,81,0.00,,,0.00,Rainwise IP-100,2013-11-12 13:50:00,
2013-11-12 05:55:00,55.2,50.0,30.47,NNE,22,2.3,3.0,81,0.00,,,0.00,Rainwise IP-100,2013-11-12 13:55:00,
2013-11-12 06:00:00,55.2,50.0,30.46,ENE,67,2.6,3.0,81,0.00,,,0.00,Rainwise IP-100,2013-11-12 14:00:00,
2013-11-12 06:05:00,55.3,50.0,30.46,NNE,22,4.0,5.0,81,0.00,,,0.00,Rainwise IP-100,2013-11-12 14:05:00,
2013-11-12 06:10:00,55.4,50.0,30.46,NNE,22,0.0,4.0,82,0.00,,,0.00,Rainwise IP-100,2013-11-12 14:10:00,
2013-11-12 06:15:00,55.3,50.0,30.47,NNE,22,0.0,2.0,82,0.00,,,0.00,Rainwise IP-100,2013-11-12 14:15:00,
2013-11-12 06:20:00,55.2,50.0,30.46,North,360,3.0,3.0,82,0.00,,,0.00,Rainwise IP-100,2013-11-12 14:20:00,
2013-11-12 06:25:00,55.1,50.0,30.46,NNE,22,3.0,5.0,82,0.00,,,0.00,Rainwise IP-100,2013-11-12 14:25:00,
2013-11-12 06:30:00,55.0,50.0,30.45,NE,45,5.4,5.4,83,0.00,,,0.00,Rainwise IP-100,2013-11-12 14:30:00,
2013-11-12 06:35:00,55.1,50.0,30.45,East,90,5.4,6.0,83,0.00,,,0.00,Rainwise IP-100,2013-11-12 14:35:00,
2013-11-12 06:40:00,55.3,50.0,30.46,ESE,112,4.2,8.0,83,0.00,,,0.00,Rainwise IP-100,2013-11-12 14:40:00,
2013-11-12 06:45:00,55.4,50.0,30.45,NE,45,5.6,7.0,83,0.00,,,0.00,Rainwise IP-100,2013-11-12 14:45:00,
2013-11-12 06:50:00,55.3,50.0,30.45,ENE,67,4.0,7.0,84,0.00,,,0.00,Rainwise IP-100,2013-11-12 14:50:00,
2013-11-12 06:55:00,55.3,50.0,30.45,East,90,1.6,6.0,84,0.00,,,0.00,Rainwise IP-100,2013-11-12 14:55:00,
2013-11-12 07:00:00,55.3,50.0,30.45,NNE,22,3.7,5.0,84,0.00,,,0.00,Rainwise IP-100,2013-11-12 15:00:00,
2013-11-12 07:05:00,55.2,50.0,30.46,East,90,1.9,5.0,85,0.00,,,0.00,Rainwise IP-100,2013-11-12 15:05:00,
2013-11-12 07:10:00,55.3,50.0,30.47,East,90,2.8,4.0,84,0.00,,,0.00,Rainwise IP-100,2013-11-12 15:10:00,
2013-11-12 07:15:00,55.4,50.0,30.46,ENE,67,1.2,6.0,84,0.00,,,0.00,Rainwise IP-100,2013-11-12 15:15:00,
2013-11-12 07:20:00,55.6,50.0,30.48,ESE,112,2.1,8.0,83,0.00,,,0.00,Rainwise IP-100,2013-11-12 15:20:00,
2013-11-12 07:25:00,55.7,50.0,30.46,NNE,22,5.1,7.0,83,0.00,,,0.00,Rainwise IP-100,2013-11-12 15:25:00,
2013-11-12 07:30:00,55.8,51.0,30.47,ENE,67,4.4,6.0,84,0.00,,,0.00,Rainwise IP-100,2013-11-12 15:30:00,
2013-11-12 07:35:00,55.8,50.0,30.47,NE,45,0.0,5.0,83,0.00,,,0.00,Rainwise IP-100,2013-11-12 15:35:00,
2013-11-12 07:40:00,56.0,50.0,30.47,North,360,1.9,4.0,82,0.00,,,0.00,Rainwise IP-100,2013-11-12 15:40:00,
2013-11-12 07:45:00,56.2,50.0,30.46,NNE,22,4.2,5.0,82,0.00,,,0.00,Rainwise IP-100,2013-11-12 15:45:00,
2013-11-12 07:50:00,56.3,50.0,30.47,NNE,22,2.3,5.0,82,0.00,,,0.00,Rainwise IP-100,2013-11-12 15:50:00,
2013-11-12 07:55:00,56.3,50.0,30.48,NE,45,2.6,4.0,82,0.00,,,0.00,Rainwise IP-100,2013-11-12 15:55:00,
2013-11-12 08:00:00,56.4,51.0,30.49,NNE,22,0.0,5.0,82,0.00,,,0.00,Rainwise IP-100,2013-11-12 16:00:00,
2013-11-12 08:05:00,56.6,51.0,30.48,NNE,22,2.8,3.0,82,0.00,,,0.00,Rainwise IP-100,2013-11-12 16:05:00,
2013-11-12 08:10:00,56.9,51.0,30.49,East,90,6.3,6.3,81,0.00,,,0.00,Rainwise IP-100,2013-11-12 16:10:00,
2013-11-12 08:15:00,57.1,51.0,30.50,ESE,112,0.0,6.0,80,0.00,,,0.00,Rainwise IP-100,2013-11-12 16:15:00,
2013-11-12 08:20:00,57.4,51.0,30.49,ESE,112,0.0,2.0,80,0.00,,,0.00,Rainwise IP-100,2013-11-12 16:20:00,
2013-11-12 08:25:00,57.8,51.0,30.50,ESE,112,0.0,2.0,79,0.00,,,0.00,Rainwise IP-100,2013-11-12 16:25:00,
2013-11-12 08:30:00,58.3,51.0,30.50,ESE,112,0.0,1.0,77,0.00,,,0.00,Rainwise IP-100,2013-11-12 16:30:00,
2013-11-12 08:35:00,58.8,51.0,30.50,WNW,292,0.0,0.0,76,0.00,,,0.00,Rainwise IP-100,2013-11-12 16:35:00,
2013-11-12 08:40:00,59.3,50.0,30.50,WSW,247,1.4,1.4,74,0.00,,,0.00,Rainwise IP-100,2013-11-12 16:40:00,
2013-11-12 08:45:00,59.7,50.0,30.50,WNW,292,0.0,3.0,72,0.00,,,0.00,Rainwise IP-100,2013-11-12 16:45:00,
2013-11-12 08:50:00,60.1,50.0,30.51,WSW,247,0.0,3.0,71,0.00,,,0.00,Rainwise IP-100,2013-11-12 16:50:00,
2013-11-12 08:55:00,60.3,50.0,30.50,West,270,1.4,2.0,70,0.00,,,0.00,Rainwise IP-100,2013-11-12 16:55:00,
2013-11-12 09:00:00,60.6,50.0,30.51,WNW,292,0.0,2.0,69,0.00,,,0.00,Rainwise IP-100,2013-11-12 17:00:00,
2013-11-12 09:05:00,61.0,50.0,30.50,ESE,112,0.0,2.0,69,0.00,,,0.00,Rainwise IP-100,2013-11-12 17:05:00,
2013-11-12 09:10:00,61.5,51.0,30.50,WSW,247,2.1,4.0,69,0.00,,,0.00,Rainwise IP-100,2013-11-12 17:10:00,
2013-11-12 09:15:00,61.6,51.0,30.50,SW,225,1.2,3.0,69,0.00,,,0.00,Rainwise IP-100,2013-11-12 17:15:00,
2013-11-12 09:20:00,61.5,51.0,30.50,NW,315,1.2,2.0,69,0.00,,,0.00,Rainwise IP-100,2013-11-12 17:20:00,
2013-11-12 09:25:00,61.7,50.0,30.50,ENE,67,0.0,4.0,68,0.00,,,0.00,Rainwise IP-100,2013-11-12 17:25:00,
2013-11-12 09:30:00,62.1,51.0,30.50,WNW,292,0.0,2.0,68,0.00,,,0.00,Rainwise IP-100,2013-11-12 17:30:00,
2013-11-12 09:35:00,62.6,51.0,30.50,NW,315,2.1,4.0,66,0.00,,,0.00,Rainwise IP-100,2013-11-12 17:35:00,
2013-11-12 09:40:00,62.8,50.0,30.50,NNW,337,0.0,3.0,64,0.00,,,0.00,Rainwise IP-100,2013-11-12 17:40:00,
2013-11-12 09:45:00,63.1,50.0,30.51,NNW,337,0.0,2.0,64,0.00,,,0.00,Rainwise IP-100,2013-11-12 17:45:00,
2013-11-12 09:50:00,63.5,50.0,30.51,SW,225,0.0,3.0,63,0.00,,,0.00,Rainwise IP-100,2013-11-12 17:50:00,
2013-11-12 09:55:00,64.4,50.0,30.51,SSE,157,0.0,2.0,61,0.00,,,0.00,Rainwise IP-100,2013-11-12 17:55:00,
2013-11-12 10:00:00,65.5,50.0,30.51,SSE,157,1.4,2.0,59,0.00,,,0.00,Rainwise IP-100,2013-11-12 18:00:00,
2013-11-12 10:05:00,65.8,50.0,30.51,NNE,22,2.1,5.0,57,0.00,,,0.00,Rainwise IP-100,2013-11-12 18:05:00,
2013-11-12 10:10:00,65.2,49.0,30.51,NW,315,4.2,5.0,57,0.00,,,0.00,Rainwise IP-100,2013-11-12 18:10:00,
2013-11-12 10:15:00,64.4,49.0,30.51,WNW,292,2.6,5.0,58,0.00,,,0.00,Rainwise IP-100,2013-11-12 18:15:00,
2013-11-12 10:20:00,64.0,49.0,30.51,ESE,112,1.6,4.0,58,0.00,,,0.00,Rainwise IP-100,2013-11-12 18:20:00,
2013-11-12 10:25:00,64.3,49.0,30.51,NW,315,1.9,4.0,58,0.00,,,0.00,Rainwise IP-100,2013-11-12 18:25:00,
2013-11-12 10:30:00,64.9,50.0,30.51,NNW,337,0.0,4.0,58,0.00,,,0.00,Rainwise IP-100,2013-11-12 18:30:00,
2013-11-12 10:35:00,65.8,50.0,30.51,WNW,292,0.0,2.0,57,0.00,,,0.00,Rainwise IP-100,2013-11-12 18:35:00,
2013-11-12 10:40:00,67.2,51.0,30.51,West,270,1.6,3.0,56,0.00,,,0.00,Rainwise IP-100,2013-11-12 18:40:00,
2013-11-12 10:45:00,68.1,50.0,30.51,NNE,22,2.3,3.0,54,0.00,,,0.00,Rainwise IP-100,2013-11-12 18:45:00,
2013-11-12 10:50:00,68.5,50.0,30.51,NW,315,1.6,5.0,53,0.00,,,0.00,Rainwise IP-100,2013-11-12 18:50:00,
2013-11-12 10:55:00,68.8,50.0,30.51,WNW,292,1.2,5.0,52,0.00,,,0.00,Rainwise IP-100,2013-11-12 18:55:00,
2013-11-12 11:00:00,68.9,50.0,30.50,SE,135,2.8,7.0,51,0.00,,,0.00,Rainwise IP-100,2013-11-12 19:00:00,
2013-11-12 11:05:00,68.9,50.0,30.50,South,180,3.0,5.0,51,0.00,,,0.00,Rainwise IP-100,2013-11-12 19:05:00,
2013-11-12 11:10:00,69.1,51.0,30.50,NNW,337,8.4,8.4,53,0.00,,,0.00,Rainwise IP-100,2013-11-12 19:10:00,
2013-11-12 11:15:00,68.8,50.0,30.50,WNW,292,3.3,9.0,53,0.00,,,0.00,Rainwise IP-100,2013-11-12 19:15:00,
2013-11-12 11:20:00,68.1,50.0,30.50,WNW,292,2.1,9.0,53,0.00,,,0.00,Rainwise IP-100,2013-11-12 19:20:00,
2013-11-12 11:25:00,67.9,50.0,30.50,WNW,292,2.8,7.0,54,0.00,,,0.00,Rainwise IP-100,2013-11-12 19:25:00,
2013-11-12 11:30:00,68.7,50.0,30.50,ESE,112,0.0,3.0,53,0.00,,,0.00,Rainwise IP-100,2013-11-12 19:30:00,
2013-11-12 11:35:00,69.2,50.0,30.50,NNE,22,0.0,5.0,51,0.00,,,0.00,Rainwise IP-100,2013-11-12 19:35:00,
2013-11-12 11:40:00,69.0,50.0,30.49,ENE,67,1.2,4.0,50,0.00,,,0.00,Rainwise IP-100,2013-11-12 19:40:00,
2013-11-12 11:45:00,68.6,49.0,30.49,NW,315,1.4,5.0,50,0.00,,,0.00,Rainwise IP-100,2013-11-12 19:45:00,
2013-11-12 11:50:00,68.6,49.0,30.49,WNW,292,8.4,8.4,50,0.00,,,0.00,Rainwise IP-100,2013-11-12 19:50:00,
2013-11-12 11:55:00,68.7,50.0,30.48,NW,315,2.8,10.0,52,0.00,,,0.00,Rainwise IP-100,2013-11-12 19:55:00,
2013-11-12 12:00:00,68.5,50.0,30.48,WSW,247,1.2,7.0,53,0.00,,,0.00,Rainwise IP-100,2013-11-12 20:00:00,
2013-11-12 12:05:00,68.0,50.0,30.48,WNW,292,0.0,7.0,54,0.00,,,0.00,Rainwise IP-100,2013-11-12 20:05:00,
2013-11-12 12:10:00,67.1,50.0,30.48,WNW,292,4.7,8.0,55,0.00,,,0.00,Rainwise IP-100,2013-11-12 20:10:00,
2013-11-12 12:15:00,66.8,50.0,30.48,WNW,292,5.4,8.0,55,0.00,,,0.00,Rainwise IP-100,2013-11-12 20:15:00,
2013-11-12 12:20:00,67.1,50.0,30.47,WSW,247,1.6,6.0,55,0.00,,,0.00,Rainwise IP-100,2013-11-12 20:20:00,
2013-11-12 12:25:00,67.4,50.0,30.47,WNW,292,5.4,5.4,55,0.00,,,0.00,Rainwise IP-100,2013-11-12 20:25:00,
2013-11-12 12:30:00,67.3,50.0,30.47,NW,315,6.1,6.1,55,0.00,,,0.00,Rainwise IP-100,2013-11-12 20:30:00,
2013-11-12 12:35:00,66.8,50.0,30.47,West,270,4.4,7.0,55,0.00,,,0.00,Rainwise IP-100,2013-11-12 20:35:00,
2013-11-12 12:40:00,66.5,50.0,30.47,WNW,292,2.6,6.0,56,0.00,,,0.00,Rainwise IP-100,2013-11-12 20:40:00,
2013-11-12 12:45:00,66.2,50.0,30.47,WNW,292,2.8,4.0,57,0.00,,,0.00,Rainwise IP-100,2013-11-12 20:45:00,
2013-11-12 12:50:00,66.1,50.0,30.47,SW,225,0.0,5.0,58,0.00,,,0.00,Rainwise IP-100,2013-11-12 20:50:00,
2013-11-12 12:55:00,66.3,51.0,30.47,WNW,292,2.3,5.0,59,0.00,,,0.00,Rainwise IP-100,2013-11-12 20:55:00,
2013-11-12 13:00:00,66.4,51.0,30.47,WSW,247,1.4,5.0,58,0.00,,,0.00,Rainwise IP-100,2013-11-12 21:00:00,
2013-11-12 13:05:00,66.7,51.0,30.47,NNW,337,1.9,3.0,57,0.00,,,0.00,Rainwise IP-100,2013-11-12 21:05:00,
2013-11-12 13:10:00,67.0,50.0,30.47,ESE,112,2.1,3.0,55,0.00,,,0.00,Rainwise IP-100,2013-11-12 21:10:00,
2013-11-12 13:15:00,66.8,50.0,30.46,WNW,292,3.0,5.0,55,0.00,,,0.00,Rainwise IP-100,2013-11-12 21:15:00,
2013-11-12 13:20:00,66.5,50.0,30.46,WSW,247,3.0,5.0,55,0.00,,,0.00,Rainwise IP-100,2013-11-12 21:20:00,
2013-11-12 13:25:00,66.9,50.0,30.45,SSE,157,0.0,4.0,55,0.00,,,0.00,Rainwise IP-100,2013-11-12 21:25:00,
2013-11-12 13:30:00,67.8,50.0,30.46,ENE,67,1.6,4.0,54,0.00,,,0.00,Rainwise IP-100,2013-11-12 21:30:00,
2013-11-12 13:35:00,68.6,50.0,30.46,WSW,247,3.3,4.0,52,0.00,,,0.00,Rainwise IP-100,2013-11-12 21:35:00,
2013-11-12 13:40:00,68.6,50.0,30.46,West,270,4.7,4.7,52,0.00,,,0.00,Rainwise IP-100,2013-11-12 21:40:00,
2013-11-12 13:45:00,68.4,51.0,30.46,SSW,202,6.5,6.5,54,0.00,,,0.00,Rainwise IP-100,2013-11-12 21:45:00,
2013-11-12 13:50:00,67.6,50.0,30.46,SSW,202,6.3,10.0,55,0.00,,,0.00,Rainwise IP-100,2013-11-12 21:50:00,
2013-11-12 13:55:00,66.6,51.0,30.46,SSW,202,2.1,7.0,57,0.00,,,0.00,Rainwise IP-100,2013-11-12 21:55:00,
2013-11-12 14:00:00,65.9,51.0,30.46,SW,225,8.4,11.0,59,0.00,,,0.00,Rainwise IP-100,2013-11-12 22:00:00,
2013-11-12 14:05:00,65.1,50.0,30.46,West,270,1.9,10.0,60,0.00,,,0.00,Rainwise IP-100,2013-11-12 22:05:00,
2013-11-12 14:10:00,64.6,50.0,30.46,WSW,247,4.0,5.0,61,0.00,,,0.00,Rainwise IP-100,2013-11-12 22:10:00,
2013-11-12 14:15:00,64.9,51.0,30.46,WSW,247,3.3,5.0,61,0.00,,,0.00,Rainwise IP-100,2013-11-12 22:15:00,
2013-11-12 14:20:00,64.9,51.0,30.46,SSW,202,5.8,7.0,61,0.00,,,0.00,Rainwise IP-100,2013-11-12 22:20:00,
2013-11-12 14:25:00,64.7,50.0,30.46,WSW,247,1.6,7.0,61,0.00,,,0.00,Rainwise IP-100,2013-11-12 22:25:00,
2013-11-12 14:30:00,64.8,50.0,30.46,SSW,202,0.0,5.0,60,0.00,,,0.00,Rainwise IP-100,2013-11-12 22:30:00,
2013-11-12 14:35:00,65.4,50.0,30.45,WSW,247,0.0,4.0,59,0.00,,,0.00,Rainwise IP-100,2013-11-12 22:35:00,
2013-11-12 14:40:00,66.5,51.0,30.46,WNW,292,3.0,4.0,57,0.00,,,0.00,Rainwise IP-100,2013-11-12 22:40:00,
2013-11-12 14:45:00,67.7,50.0,30.46,ENE,67,2.1,8.0,54,0.00,,,0.00,Rainwise IP-100,2013-11-12 22:45:00,
2013-11-12 14:50:00,68.6,50.0,30.46,ESE,112,1.6,6.0,52,0.00,,,0.00,Rainwise IP-100,2013-11-12 22:50:00,
2013-11-12 14:55:00,69.4,50.0,30.45,East,90,3.7,4.0,52,0.00,,,0.00,Rainwise IP-100,2013-11-12 22:55:00,
2013-11-12 15:00:00,69.7,51.0,30.45,NNW,337,2.1,5.0,52,0.00,,,0.00,Rainwise IP-100,2013-11-12 23:00:00,
2013-11-12 15:05:00,69.0,50.0,30.45,North,360,5.1,7.0,52,0.00,,,0.00,Rainwise IP-100,2013-11-12 23:05:00,
2013-11-12 15:10:00,68.0,50.0,30.45,WNW,292,3.7,5.0,54,0.00,,,0.00,Rainwise IP-100,2013-11-12 23:10:00,
2013-11-12 15:15:00,67.6,51.0,30.45,WNW,292,2.3,5.0,56,0.00,,,0.00,Rainwise IP-100,2013-11-12 23:15:00,
2013-11-12 15:20:00,67.5,52.0,30.45,WNW,292,2.8,5.0,57,0.00,,,0.00,Rainwise IP-100,2013-11-12 23:20:00,
2013-11-12 15:25:00,67.6,52.0,30.45,WNW,292,4.7,6.0,57,0.00,,,0.00,Rainwise IP-100,2013-11-12 23:25:00,
2013-11-12 15:30:00,67.8,52.0,30.46,SSW,202,0.0,6.0,58,0.00,,,0.00,Rainwise IP-100,2013-11-12 23:30:00,
2013-11-12 15:35:00,67.9,53.0,30.45,NNW,337,1.9,5.0,58,0.00,,,0.00,Rainwise IP-100,2013-11-12 23:35:00,
2013-11-12 15:40:00,68.0,52.0,30.45,West,270,2.8,6.0,57,0.00,,,0.00,Rainwise IP-100,2013-11-12 23:40:00,
2013-11-12 15:45:00,68.0,52.0,30.45,SSW,202,1.9,4.0,57,0.00,,,0.00,Rainwise IP-100,2013-11-12 23:45:00,
2013-11-12 15:50:00,68.3,52.0,30.45,West,270,1.2,5.0,57,0.00,,,0.00,Rainwise IP-100,2013-11-12 23:50:00,
2013-11-12 15:55:00,68.2,52.0,30.45,North,360,1.2,8.0,57,0.00,,,0.00,Rainwise IP-100,2013-11-12 23:55:00,
2013-11-12 16:00:00,67.7,52.0,30.45,WNW,292,4.2,4.2,57,0.00,,,0.00,Rainwise IP-100,2013-11-13 00:00:00,
2013-11-12 16:05:00,67.4,52.0,30.45,NNW,337,1.2,5.0,58,0.00,,,0.00,Rainwise IP-100,2013-11-13 00:05:00,
2013-11-12 16:10:00,67.0,52.0,30.45,NW,315,2.3,8.0,58,0.00,,,0.00,Rainwise IP-100,2013-11-13 00:10:00,
2013-11-12 16:15:00,66.5,51.0,30.45,WNW,292,2.6,7.0,58,0.00,,,0.00,Rainwise IP-100,2013-11-13 00:15:00,
2013-11-12 16:20:00,66.2,51.0,30.45,WNW,292,3.0,4.0,59,0.00,,,0.00,Rainwise IP-100,2013-11-13 00:20:00,
2013-11-12 16:25:00,66.1,51.0,30.45,North,360,0.0,7.0,59,0.00,,,0.00,Rainwise IP-100,2013-11-13 00:25:00,
2013-11-12 16:30:00,66.0,51.0,30.45,West,270,0.0,4.0,59,0.00,,,0.00,Rainwise IP-100,2013-11-13 00:30:00,
2013-11-12 16:35:00,65.7,50.0,30.44,WNW,292,1.9,8.0,59,0.00,,,0.00,Rainwise IP-100,2013-11-13 00:35:00,
2013-11-12 16:40:00,65.3,50.0,30.45,West,270,0.0,6.0,59,0.00,,,0.00,Rainwise IP-100,2013-11-13 00:40:00,
2013-11-12 16:45:00,65.0,50.0,30.46,West,270,0.0,6.0,59,0.00,,,0.00,Rainwise IP-100,2013-11-13 00:45:00,
2013-11-12 16:50:00,64.5,50.0,30.46,WNW,292,5.8,10.0,59,0.00,,,0.00,Rainwise IP-100,2013-11-13 00:50:00,
2013-11-12 16:55:00,63.8,49.0,30.46,WNW,292,5.1,8.0,60,0.00,,,0.00,Rainwise IP-100,2013-11-13 00:55:00,
2013-11-12 17:00:00,63.3,49.0,30.46,WNW,292,4.2,10.0,61,0.00,,,0.00,Rainwise IP-100,2013-11-13 01:00:00,
2013-11-12 17:05:00,63.3,49.0,30.45,NNW,337,5.6,8.0,60,0.00,,,0.00,Rainwise IP-100,2013-11-13 01:05:00,
2013-11-12 17:10:00,63.4,48.0,30.46,NNW,337,0.0,10.0,58,0.00,,,0.00,Rainwise IP-100,2013-11-13 01:10:00,
2013-11-12 17:15:00,63.2,48.0,30.46,East,90,0.0,5.0,59,0.00,,,0.00,Rainwise IP-100,2013-11-13 01:15:00,
2013-11-12 17:20:00,62.6,49.0,30.46,ENE,67,1.6,2.0,62,0.00,,,0.00,Rainwise IP-100,2013-11-13 01:20:00,
2013-11-12 17:25:00,61.7,50.0,30.47,NE,45,1.2,4.0,67,0.00,,,0.00,Rainwise IP-100,2013-11-13 01:25:00,
2013-11-12 17:30:00,60.9,51.0,30.46,ESE,112,0.0,2.0,70,0.00,,,0.00,Rainwise IP-100,2013-11-13 01:30:00,
2013-11-12 17:35:00,60.3,50.0,30.46,ENE,67,2.1,3.0,72,0.00,,,0.00,Rainwise IP-100,2013-11-13 01:35:00,
2013-11-12 17:40:00,59.9,51.0,30.47,SE,135,1.6,3.0,73,0.00,,,0.00,Rainwise IP-100,2013-11-13 01:40:00,
2013-11-12 17:45:00,59.5,51.0,30.46,SE,135,0.0,2.0,74,0.00,,,0.00,Rainwise IP-100,2013-11-13 01:45:00,
2013-11-12 17:50:00,59.1,51.0,30.46,SSE,157,0.0,2.0,75,0.00,,,0.00,Rainwise IP-100,2013-11-13 01:50:00,
2013-11-12 17:55:00,58.7,51.0,30.46,SSE,157,1.2,1.2,76,0.00,,,0.00,Rainwise IP-100,2013-11-13 01:55:00,
2013-11-12 18:00:00,58.3,51.0,30.46,SSW,202,0.0,2.0,77,0.00,,,0.00,Rainwise IP-100,2013-11-13 02:00:00,
2013-11-12 18:05:00,58.1,51.0,30.46,WSW,247,2.8,4.0,78,0.00,,,0.00,Rainwise IP-100,2013-11-13 02:05:00,
2013-11-12 18:10:00,58.0,52.0,30.47,SW,225,2.8,4.0,79,0.00,,,0.00,Rainwise IP-100,2013-11-13 02:10:00,
2013-11-12 18:15:00,57.9,52.0,30.47,WSW,247,3.5,4.0,80,0.00,,,0.00,Rainwise IP-100,2013-11-13 02:15:00,
2013-11-12 18:20:00,57.9,53.0,30.47,WSW,247,3.5,4.0,81,0.00,,,0.00,Rainwise IP-100,2013-11-13 02:20:00,
2013-11-12 18:25:00,57.7,52.0,30.47,WSW,247,2.6,6.0,81,0.00,,,0.00,Rainwise IP-100,2013-11-13 02:25:00,
2013-11-12 18:30:00,57.5,52.0,30.47,SW,225,3.0,6.0,82,0.00,,,0.00,Rainwise IP-100,2013-11-13 02:30:00,
2013-11-12 18:35:00,57.3,52.0,30.47,SSW,202,2.6,6.0,82,0.00,,,0.00,Rainwise IP-100,2013-11-13 02:35:00,
2013-11-12 18:40:00,57.2,52.0,30.47,WSW,247,4.4,7.0,83,0.00,,,0.00,Rainwise IP-100,2013-11-13 02:40:00,
2013-11-12 18:45:00,57.1,52.0,30.48,WSW,247,2.1,7.0,83,0.00,,,0.00,Rainwise IP-100,2013-11-13 02:45:00,
2013-11-12 18:50:00,57.1,52.0,30.48,WSW,247,3.0,8.0,84,0.00,,,0.00,Rainwise IP-100,2013-11-13 02:50:00,
2013-11-12 18:55:00,57.0,52.0,30.48,SSW,202,0.0,4.0,84,0.00,,,0.00,Rainwise IP-100,2013-11-13 02:55:00,
2013-11-12 19:00:00,56.8,52.0,30.48,NW,315,0.0,5.0,85,0.00,,,0.00,Rainwise IP-100,2013-11-13 03:00:00,
2013-11-12 19:05:00,56.7,52.0,30.48,SSE,157,0.0,3.0,85,0.00,,,0.00,Rainwise IP-100,2013-11-13 03:05:00,
2013-11-12 19:10:00,56.4,53.0,30.49,SE,135,0.0,2.0,86,0.00,,,0.00,Rainwise IP-100,2013-11-13 03:10:00,
2013-11-12 19:15:00,56.3,52.0,30.48,SW,225,3.0,4.0,86,0.00,,,0.00,Rainwise IP-100,2013-11-13 03:15:00,
2013-11-12 19:20:00,56.3,52.0,30.48,SSE,157,1.6,6.0,87,0.00,,,0.00,Rainwise IP-100,2013-11-13 03:20:00,
2013-11-12 19:25:00,56.3,53.0,30.48,SE,135,1.9,5.0,88,0.00,,,0.00,Rainwise IP-100,2013-11-13 03:25:00,
2013-11-12 19:30:00,56.2,53.0,30.49,SSW,202,3.3,7.0,88,0.00,,,0.00,Rainwise IP-100,2013-11-13 03:30:00,
2013-11-12 19:35:00,56.1,53.0,30.49,WSW,247,2.8,7.0,89,0.00,,,0.00,Rainwise IP-100,2013-11-13 03:35:00,
2013-11-12 19:40:00,56.0,53.0,30.49,SW,225,6.1,6.1,89,0.00,,,0.00,Rainwise IP-100,2013-11-13 03:40:00,
2013-11-12 19:45:00,55.9,53.0,30.49,WSW,247,2.8,6.0,90,0.00,,,0.00,Rainwise IP-100,2013-11-13 03:45:00,
2013-11-12 19:50:00,55.8,53.0,30.48,SSE,157,1.9,5.0,90,0.00,,,0.00,Rainwise IP-100,2013-11-13 03:50:00,
2013-11-12 19:55:00,55.7,53.0,30.48,SE,135,2.1,3.0,91,0.00,,,0.00,Rainwise IP-100,2013-11-13 03:55:00,
2013-11-12 20:00:00,55.5,53.0,30.49,SE,135,4.9,6.0,91,0.00,,,0.00,Rainwise IP-100,2013-11-13 04:00:00,
2013-11-12 20:05:00,55.4,53.0,30.49,SE,135,2.1,6.0,92,0.00,,,0.00,Rainwise IP-100,2013-11-13 04:05:00,
2013-11-12 20:10:00,55.3,53.0,30.48,SSE,157,0.0,4.0,92,0.00,,,0.00,Rainwise IP-100,2013-11-13 04:10:00,
2013-11-12 20:15:00,55.2,53.0,30.49,SSW,202,2.8,5.0,93,0.00,,,0.00,Rainwise IP-100,2013-11-13 04:15:00,
2013-11-12 20:20:00,55.2,53.0,30.49,SSE,157,0.0,5.0,93,0.00,,,0.00,Rainwise IP-100,2013-11-13 04:20:00,
2013-11-12 20:25:00,55.2,53.0,30.50,South,180,0.0,3.0,93,0.00,,,0.00,Rainwise IP-100,2013-11-13 04:25:00,
2013-11-12 20:30:00,55.1,53.0,30.49,South,180,2.6,4.0,94,0.00,,,0.00,Rainwise IP-100,2013-11-13 04:30:00,
2013-11-12 20:35:00,55.0,53.0,30.49,SSW,202,2.1,6.0,94,0.00,,,0.00,Rainwise IP-100,2013-11-13 04:35:00,
2013-11-12 20:40:00,55.0,53.0,30.49,WSW,247,3.5,6.0,94,0.00,,,0.00,Rainwise IP-100,2013-11-13 04:40:00,
2013-11-12 20:45:00,55.0,53.0,30.49,West,270,3.5,7.0,94,0.00,,,0.00,Rainwise IP-100,2013-11-13 04:45:00,
2013-11-12 20:50:00,55.1,53.0,30.50,WNW,292,2.6,5.0,94,0.00,,,0.00,Rainwise IP-100,2013-11-13 04:50:00,
2013-11-12 20:55:00,55.1,53.0,30.49,NW,315,2.8,4.0,94,0.00,,,0.00,Rainwise IP-100,2013-11-13 04:55:00,
2013-11-12 21:00:00,55.1,53.0,30.49,WNW,292,3.0,4.0,93,0.00,,,0.00,Rainwise IP-100,2013-11-13 05:00:00,
2013-11-12 21:01:00,55.1,53.0,30.49,WNW,292,4.7,4.7,93,0.00,,,0.00,Rainwise IP-100,2013-11-13 05:01:00,
2013-11-12 21:06:00,55.2,53.0,30.49,SE,135,0.0,4.0,93,0.00,,,0.00,Rainwise IP-100,2013-11-13 05:06:00,
2013-11-12 21:11:00,55.2,53.0,30.50,West,270,1.2,4.0,93,0.00,,,0.00,Rainwise IP-100,2013-11-13 05:11:00,
2013-11-12 21:16:00,55.2,53.0,30.49,WSW,247,0.0,3.0,93,0.00,,,0.00,Rainwise IP-100,2013-11-13 05:16:00,
2013-11-12 21:21:00,55.2,53.0,30.50,West,270,2.8,5.0,93,0.00,,,0.00,Rainwise IP-100,2013-11-13 05:21:00,
2013-11-12 21:26:00,55.3,53.0,30.49,WNW,292,1.6,5.0,93,0.00,,,0.00,Rainwise IP-100,2013-11-13 05:26:00,
2013-11-12 21:31:00,55.3,53.0,30.50,SSW,202,1.4,4.0,92,0.00,,,0.00,Rainwise IP-100,2013-11-13 05:31:00,
2013-11-12 21:36:00,55.3,53.0,30.50,SW,225,3.7,4.0,92,0.00,,,0.00,Rainwise IP-100,2013-11-13 05:36:00,
2013-11-12 21:41:00,55.3,53.0,30.50,West,270,3.3,6.0,92,0.00,,,0.00,Rainwise IP-100,2013-11-13 05:41:00,
2013-11-12 21:46:00,55.3,53.0,30.50,SSW,202,2.6,7.0,92,0.00,,,0.00,Rainwise IP-100,2013-11-13 05:46:00,
2013-11-12 21:51:00,55.3,53.0,30.50,SW,225,1.4,7.0,93,0.00,,,0.00,Rainwise IP-100,2013-11-13 05:51:00,
2013-11-12 21:56:00,55.1,53.0,30.50,SSW,202,0.0,5.0,93,0.00,,,0.00,Rainwise IP-100,2013-11-13 05:56:00,
2013-11-12 22:01:00,54.8,53.0,30.50,SSE,157,5.8,5.8,93,0.00,,,0.00,Rainwise IP-100,2013-11-13 06:01:00,
2013-11-12 22:06:00,54.6,53.0,30.50,SSW,202,1.9,8.0,93,0.00,,,0.00,Rainwise IP-100,2013-11-13 06:06:00,
2013-11-12 22:11:00,54.5,53.0,30.50,South,180,0.0,8.0,94,0.00,,,0.00,Rainwise IP-100,2013-11-13 06:11:00,
2013-11-12 22:16:00,54.4,53.0,30.49,ENE,67,0.0,4.0,95,0.00,,,0.00,Rainwise IP-100,2013-11-13 06:16:00,
2013-11-12 22:21:00,54.2,53.0,30.50,NW,315,0.0,5.0,95,0.00,,,0.00,Rainwise IP-100,2013-11-13 06:21:00,
2013-11-12 22:26:00,54.1,53.0,30.50,WNW,292,0.0,6.0,95,0.00,,,0.00,Rainwise IP-100,2013-11-13 06:26:00,
2013-11-12 22:31:00,54.1,53.0,30.50,SE,135,2.3,3.0,96,0.00,,,0.00,Rainwise IP-100,2013-11-13 06:31:00,
2013-11-12 22:36:00,54.0,53.0,30.50,South,180,2.8,5.0,96,0.00,,,0.00,Rainwise IP-100,2013-11-13 06:36:00,
2013-11-12 22:41:00,54.0,53.0,30.50,SSW,202,3.0,5.0,96,0.00,,,0.00,Rainwise IP-100,2013-11-13 06:41:00,
2013-11-12 22:46:00,54.1,53.0,30.50,ENE,67,0.0,5.0,96,0.00,,,0.00,Rainwise IP-100,2013-11-13 06:46:00,
2013-11-12 22:51:00,54.0,53.0,30.50,East,90,1.6,6.0,97,0.00,,,0.00,Rainwise IP-100,2013-11-13 06:51:00,
2013-11-12 22:56:00,53.9,53.0,30.50,SSE,157,4.0,7.0,97,0.00,,,0.00,Rainwise IP-100,2013-11-13 06:56:00,
2013-11-12 23:01:00,54.0,53.0,30.50,SW,225,5.8,7.0,97,0.00,,,0.00,Rainwise IP-100,2013-11-13 07:01:00,
2013-11-12 23:06:00,54.1,53.0,30.49,NE,45,0.0,9.0,97,0.00,,,0.00,Rainwise IP-100,2013-11-13 07:06:00,
2013-11-12 23:11:00,54.0,53.0,30.50,East,90,1.2,6.0,97,0.00,,,0.00,Rainwise IP-100,2013-11-13 07:11:00,
2013-11-12 23:16:00,53.9,53.0,30.50,East,90,0.0,2.0,97,0.00,,,0.00,Rainwise IP-100,2013-11-13 07:16:00,
2013-11-12 23:21:00,53.8,53.0,30.49,West,270,0.0,3.0,97,0.00,,,0.00,Rainwise IP-100,2013-11-13 07:21:00,
2013-11-12 23:26:00,53.7,53.0,30.49,West,270,0.0,4.0,98,0.00,,,0.00,Rainwise IP-100,2013-11-13 07:26:00,
2013-11-12 23:31:00,53.8,53.0,30.49,SW,225,0.0,3.0,98,0.00,,,0.00,Rainwise IP-100,2013-11-13 07:31:00,
2013-11-12 23:36:00,53.8,53.0,30.49,SSW,202,6.5,6.5,98,0.00,,,0.00,Rainwise IP-100,2013-11-13 07:36:00,
2013-11-12 23:41:00,53.8,53.0,30.49,SW,225,6.8,7.0,98,0.00,,,0.00,Rainwise IP-100,2013-11-13 07:41:00,
2013-11-12 23:46:00,53.8,53.0,30.49,WNW,292,0.0,6.0,98,0.00,,,0.00,Rainwise IP-100,2013-11-13 07:46:00,
2013-11-12 23:51:00,53.8,53.0,30.49,SW,225,2.6,7.0,98,0.00,,,0.00,Rainwise IP-100,2013-11-13 07:51:00,
2013-11-12 23:56:00,53.7,53.0,30.49,SW,225,1.2,7.0,98,0.00,,,0.00,Rainwise IP-100,2013-11-13 07:56:00,